,,,PA_Meas_PMT16A,,PR_Meas_QMR101_102,,RH_Meas_QMH101,,SR_Meas_QMS101,,TA_Meas_QMH101,,GenWind,,GenWind,
date,time,status,PA,status,PR,status,RH,status,SR,status,TA,status,DirAvg,status,SpdAvg,
2009-08-15, 00:00:05,VALID,1001.21,VALID,0,VALID,88.5341,VALID,0,VALID,23.1744,VALID,102,VALID,0.260156,
2009-08-15, 00:01:05,VALID,1001.18,VALID,0,VALID,88.2366,VALID,0,VALID,23.1549,VALID,102,VALID,0.449609,
2009-08-15, 00:02:05,VALID,1001.21,VALID,0,VALID,88.4349,VALID,0,VALID,23.1549,VALID,102,VALID,0.705469,
2009-08-15, 00:03:05,VALID,1001.16,VALID,0,VALID,88.5494,VALID,0,VALID,23.1354,VALID,91,VALID,0.664063,
2009-08-15, 00:04:05,VALID,1001.14,VALID,0,VALID,88.3052,VALID,0,VALID,23.0556,VALID,35,VALID,0.942187,
2009-08-15, 00:05:05,VALID,1001.15,VALID,0,VALID,88.5265,VALID,0,VALID,23.0183,VALID,29,VALID,0.401953,
2009-08-15, 00:06:05,VALID,1001.15,VALID,0,VALID,88.5417,VALID,0,VALID,22.9403,VALID,29,VALID,0,
2009-08-15, 00:07:05,VALID,1001.11,VALID,0,VALID,88.7249,VALID,0,VALID,22.8818,VALID,29,VALID,0.256641,
2009-08-15, 00:08:05,VALID,1001.11,VALID,0,VALID,89.2284,VALID,0,VALID,22.8623,VALID,41,VALID,0.953125,
2009-08-15, 00:09:05,VALID,1001.05,VALID,0,VALID,89.2589,VALID,0,VALID,22.8835,VALID,37,VALID,0.682031,
2009-08-15, 00:10:05,VALID,1000.96,VALID,0,VALID,89.4344,VALID,0,VALID,22.8445,VALID,5,VALID,1.25195,
2009-08-15, 00:11:05,VALID,1000.96,VALID,0,VALID,89.6938,VALID,0,VALID,22.7647,VALID,5,VALID,0.66875,
2009-08-15, 00:12:05,VALID,1000.96,VALID,0,VALID,89.6709,VALID,0,VALID,22.7257,VALID,25,VALID,0.915625,
2009-08-15, 00:13:05,VALID,1000.91,VALID,0,VALID,89.7777,VALID,0,VALID,22.6689,VALID,25,VALID,1.0918,
2009-08-15, 00:14:05,VALID,1000.92,VALID,0,VALID,90.1745,VALID,0,VALID,22.6087,VALID,29,VALID,1.22812,
2009-08-15, 00:15:05,VALID,1000.9,VALID,0,VALID,90.5026,VALID,0,VALID,22.5892,VALID,28,VALID,1.14688,
2009-08-15, 00:16:05,VALID,1000.95,VALID,0,VALID,90.4873,VALID,0,VALID,22.5696,VALID,26,VALID,1.29531,
2009-08-15, 00:17:05,VALID,1000.97,VALID,0,VALID,90.6399,VALID,0,VALID,22.5501,VALID,51,VALID,1.36406,
2009-08-15, 00:18:04,VALID,1000.99,VALID,0,VALID,90.8077,VALID,0,VALID,22.5306,VALID,50,VALID,0.983203,
2009-08-15, 00:19:04,VALID,1001.01,VALID,0,VALID,90.9374,VALID,0,VALID,22.5519,VALID,48,VALID,0.792969,
2009-08-15, 00:20:04,VALID,1000.97,VALID,0,VALID,90.8535,VALID,0,VALID,22.5111,VALID,21,VALID,0.858984,
2009-08-15, 00:21:04,VALID,1000.96,VALID,0,VALID,90.9909,VALID,0,VALID,22.4916,VALID,12,VALID,0.984766,
2009-08-15, 00:22:04,VALID,1000.95,VALID,0,VALID,91.0137,VALID,0,VALID,22.4721,VALID,27,VALID,0.797266,
2009-08-15, 00:23:04,VALID,1000.93,VALID,0,VALID,91.2655,VALID,0,VALID,22.4721,VALID,33,VALID,0.935547,
2009-08-15, 00:24:04,VALID,1000.93,VALID,0,VALID,90.9298,VALID,0,VALID,22.4738,VALID,66,VALID,1.01406,
2009-08-15, 00:25:04,VALID,1000.89,VALID,0,VALID,91.0061,VALID,0,VALID,22.4136,VALID,81,VALID,1.59453,
2009-08-15, 00:26:04,VALID,1000.88,VALID,0,VALID,91.0748,VALID,0,VALID,22.4136,VALID,71,VALID,0.988672,
2009-08-15, 00:27:04,VALID,1000.86,VALID,0,VALID,91.0443,VALID,0.112286,VALID,22.4331,VALID,66,VALID,0.684375,
2009-08-15, 00:28:04,VALID,1000.85,VALID,0,VALID,90.968,VALID,0.112286,VALID,22.4314,VALID,66,VALID,0.683984,
2009-08-15, 00:29:04,VALID,1000.83,VALID,0,VALID,90.9146,VALID,0,VALID,22.4314,VALID,65,VALID,0.941406,
2009-08-15, 00:30:04,VALID,1000.82,VALID,0,VALID,90.7162,VALID,0.112286,VALID,22.4509,VALID,64,VALID,0.633984,
2009-08-15, 00:31:04,VALID,1000.79,VALID,0,VALID,90.4873,VALID,0.112286,VALID,22.4916,VALID,66,VALID,0.412109,
2009-08-15, 00:32:04,VALID,1000.75,VALID,0,VALID,90.3042,VALID,0,VALID,22.4526,VALID,66,VALID,0.413672,
2009-08-15, 00:33:04,VALID,1000.76,VALID,0,VALID,90.4263,VALID,0.112286,VALID,22.4314,VALID,63,VALID,0.681641,
2009-08-15, 00:34:04,VALID,1000.74,VALID,0,VALID,90.5788,VALID,0.112286,VALID,22.4331,VALID,46,VALID,0.757813,
2009-08-15, 00:35:04,VALID,1000.76,VALID,0,VALID,90.4873,VALID,0.112286,VALID,22.4331,VALID,33,VALID,0.44375,
2009-08-15, 00:36:04,VALID,1000.75,VALID,0,VALID,90.5483,VALID,0,VALID,22.3941,VALID,33,VALID,0.250391,
2009-08-15, 00:37:04,VALID,1000.74,VALID,0,VALID,90.7009,VALID,0.112286,VALID,22.3941,VALID,33,VALID,0.453125,
2009-08-15, 00:38:04,VALID,1000.72,VALID,0,VALID,90.9146,VALID,0.112286,VALID,22.3941,VALID,31,VALID,0.892578,
2009-08-15, 00:39:04,VALID,1000.67,VALID,0,VALID,90.7543,VALID,0.112286,VALID,22.3941,VALID,6,VALID,0.883203,
2009-08-15, 00:40:04,VALID,1000.71,VALID,0,VALID,90.6094,VALID,0.112286,VALID,22.3746,VALID,352,VALID,0.828125,
2009-08-15, 00:41:04,VALID,1000.69,VALID,0,VALID,90.6475,VALID,0.112286,VALID,22.3941,VALID,352,VALID,0.664844,
2009-08-15, 00:42:04,VALID,1000.69,VALID,0,VALID,90.5254,VALID,0,VALID,22.3941,VALID,352,VALID,0.6875,
2009-08-15, 00:43:04,VALID,1000.72,VALID,0,VALID,90.0677,VALID,0,VALID,22.3746,VALID,355,VALID,0.482031,
2009-08-15, 00:44:04,VALID,1000.69,VALID,0,VALID,90.4949,VALID,0,VALID,22.3763,VALID,356,VALID,0.588281,
2009-08-15, 00:45:04,VALID,1000.64,VALID,0,VALID,90.7162,VALID,0,VALID,22.3958,VALID,23,VALID,0.755078,
2009-08-15, 00:46:04,VALID,1000.67,VALID,0,VALID,90.6628,VALID,0,VALID,22.4348,VALID,4,VALID,0.603906,
2009-08-15, 00:47:04,VALID,1000.67,VALID,0,VALID,90.4568,VALID,0,VALID,22.4136,VALID,23,VALID,0.611328,
2009-08-15, 00:48:04,VALID,1000.68,VALID,0,VALID,90.4568,VALID,0,VALID,22.3941,VALID,65,VALID,0.955078,
2009-08-15, 00:49:04,VALID,1000.65,VALID,0,VALID,91.0977,VALID,0,VALID,22.4348,VALID,46,VALID,1.02266,
2009-08-15, 00:50:04,VALID,1000.64,VALID,0,VALID,91.235,VALID,0,VALID,22.4526,VALID,44,VALID,1.08477,
2009-08-15, 00:51:04,VALID,1000.62,VALID,0,VALID,91.296,VALID,0,VALID,22.4721,VALID,52,VALID,1.1918,
2009-08-15, 00:52:04,VALID,1000.58,VALID,0,VALID,91.3876,VALID,0,VALID,22.5128,VALID,68,VALID,1.32187,
2009-08-15, 00:53:04,VALID,1000.59,VALID,0,VALID,91.2197,VALID,0,VALID,22.5111,VALID,72,VALID,1.18945,
2009-08-15, 00:54:04,VALID,1000.55,VALID,0,VALID,91.1358,VALID,0,VALID,22.5111,VALID,60,VALID,0.874219,
2009-08-15, 00:55:04,VALID,1000.56,VALID,0,VALID,91.1129,VALID,0,VALID,22.4916,VALID,48,VALID,0.721094,
2009-08-15, 00:56:04,VALID,1000.59,VALID,0,VALID,91.1434,VALID,0,VALID,22.4933,VALID,45,VALID,0.485156,
2009-08-15, 00:57:04,VALID,1000.62,VALID,0,VALID,91.1663,VALID,0,VALID,22.4933,VALID,45,VALID,0.189453,
2009-08-15, 00:58:04,VALID,1000.59,VALID,0,VALID,91.174,VALID,0,VALID,22.4526,VALID,45,VALID,0.287891,
2009-08-15, 00:59:04,VALID,1000.58,VALID,0,VALID,91.2274,VALID,0,VALID,22.4738,VALID,8,VALID,0.653125,
2009-08-15, 01:00:04,VALID,1000.61,VALID,0,VALID,91.38,VALID,0,VALID,22.4526,VALID,3,VALID,0.676562,
2009-08-15, 01:01:04,VALID,1000.58,VALID,0,VALID,91.3876,VALID,0,VALID,22.4721,VALID,3,VALID,0.485156,
2009-08-15, 01:02:04,VALID,1000.59,VALID,0,VALID,91.3723,VALID,0,VALID,22.4916,VALID,353,VALID,0.460547,
2009-08-15, 01:03:04,VALID,1000.61,VALID,0,VALID,91.3342,VALID,0,VALID,22.5111,VALID,316,VALID,0.262109,
2009-08-15, 01:04:04,VALID,1000.57,VALID,0,VALID,91.3113,VALID,0,VALID,22.5323,VALID,316,VALID,0.162891,
2009-08-15, 01:05:04,VALID,1000.57,VALID,0,VALID,91.296,VALID,0,VALID,22.5111,VALID,316,VALID,0.171094,
2009-08-15, 01:06:04,VALID,1000.54,VALID,0,VALID,91.3723,VALID,0,VALID,22.5111,VALID,316,VALID,0.337891,
2009-08-15, 01:07:04,VALID,1000.47,VALID,0,VALID,91.3037,VALID,0,VALID,22.5128,VALID,316,VALID,0.446484,
2009-08-15, 01:08:04,VALID,1000.46,VALID,0,VALID,91.3266,VALID,0,VALID,22.4933,VALID,317,VALID,0.501953,
2009-08-15, 01:09:04,VALID,1000.47,VALID,0,VALID,91.2808,VALID,0,VALID,22.5128,VALID,317,VALID,0.402344,
2009-08-15, 01:10:04,VALID,1000.46,VALID,0,VALID,91.235,VALID,0,VALID,22.4916,VALID,317,VALID,0.424219,
2009-08-15, 01:11:04,VALID,1000.42,VALID,0,VALID,91.1968,VALID,0,VALID,22.5111,VALID,2,VALID,0.577344,
2009-08-15, 01:12:04,VALID,1000.41,VALID,0,VALID,90.9374,VALID,0,VALID,22.5714,VALID,48,VALID,0.619922,
2009-08-15, 01:13:04,VALID,1000.39,VALID,0,VALID,90.6399,VALID,0,VALID,22.6104,VALID,48,VALID,0.553906,
2009-08-15, 01:14:04,VALID,1000.33,VALID,0,VALID,90.3194,VALID,0,VALID,22.6087,VALID,62,VALID,0.658594,
2009-08-15, 01:15:04,VALID,1000.32,VALID,0,VALID,90.0982,VALID,0,VALID,22.6689,VALID,65,VALID,0.85625,
2009-08-15, 01:16:04,VALID,1000.33,VALID,0,VALID,89.6328,VALID,0,VALID,22.7062,VALID,70,VALID,1.05977,
2009-08-15, 01:17:04,VALID,1000.31,VALID,0,VALID,88.969,VALID,0,VALID,22.7452,VALID,75,VALID,1.16484,
2009-08-15, 01:18:04,VALID,1000.33,VALID,0,VALID,88.5951,VALID,0,VALID,22.7842,VALID,75,VALID,0.988281,
2009-08-15, 01:19:04,VALID,1000.33,VALID,0,VALID,88.2976,VALID,0,VALID,22.8232,VALID,75,VALID,0.885156,
2009-08-15, 01:20:04,VALID,1000.31,VALID,0,VALID,88.0458,VALID,0,VALID,22.8427,VALID,75,VALID,1.0043,
2009-08-15, 01:21:04,VALID,1000.29,VALID,0,VALID,88.2366,VALID,0,VALID,22.8427,VALID,75,VALID,0.904688,
2009-08-15, 01:22:04,VALID,1000.35,VALID,0,VALID,88.4807,VALID,0,VALID,22.8623,VALID,75,VALID,0.644922,
2009-08-15, 01:23:04,VALID,1000.35,VALID,0,VALID,88.5875,VALID,0,VALID,22.8818,VALID,75,VALID,0.298438,
2009-08-15, 01:24:04,VALID,1000.34,VALID,0,VALID,88.2442,VALID,0,VALID,22.8623,VALID,86,VALID,0.607813,
2009-08-15, 01:25:04,VALID,1000.34,VALID,0,VALID,88.2518,VALID,0,VALID,22.8427,VALID,83,VALID,0.360938,
2009-08-15, 01:26:04,VALID,1000.31,VALID,0,VALID,88.2366,VALID,0,VALID,22.8055,VALID,83,VALID,0.132031,
2009-08-15, 01:27:04,VALID,1000.32,VALID,0,VALID,88.5341,VALID,0,VALID,22.7647,VALID,83,VALID,0.272656,
2009-08-15, 01:28:04,VALID,1000.3,VALID,0,VALID,88.7096,VALID,0,VALID,22.7452,VALID,83,VALID,0.021875,
2009-08-15, 01:29:04,VALID,1000.33,VALID,0,VALID,88.8546,VALID,0,VALID,22.7257,VALID,83,VALID,0.911719,
2009-08-15, 01:30:04,VALID,1000.33,VALID,0,VALID,88.8317,VALID,0,VALID,22.7274,VALID,83,VALID,0.541016,
2009-08-15, 01:31:04,VALID,1000.33,VALID,0,VALID,88.8927,VALID,0,VALID,22.7062,VALID,65,VALID,0.590625,
2009-08-15, 01:32:04,VALID,1000.32,VALID,0,VALID,89.0529,VALID,0,VALID,22.7062,VALID,65,VALID,0.247656,
2009-08-15, 01:33:04,VALID,1000.3,VALID,0,VALID,88.9309,VALID,0,VALID,22.6867,VALID,65,VALID,0.252734,
2009-08-15, 01:34:04,VALID,1000.32,VALID,0,VALID,89.1674,VALID,0,VALID,22.6672,VALID,65,VALID,0.170312,
2009-08-15, 01:35:04,VALID,1000.27,VALID,0,VALID,89.2437,VALID,0,VALID,22.6494,VALID,65,VALID,0.489062,
2009-08-15, 01:36:04,VALID,1000.26,VALID,0,VALID,89.2284,VALID,0,VALID,22.6087,VALID,58,VALID,0.671484,
2009-08-15, 01:37:04,VALID,1000.31,VALID,0,VALID,89.0453,VALID,0,VALID,22.5501,VALID,51,VALID,0.695703,
2009-08-15, 01:38:04,VALID,1000.3,VALID,0,VALID,89.0834,VALID,0,VALID,22.5306,VALID,48,VALID,0.613281,
2009-08-15, 01:39:04,VALID,1000.3,VALID,0,VALID,89.0453,VALID,0,VALID,22.5306,VALID,48,VALID,0.581641,
2009-08-15, 01:40:04,VALID,1000.32,VALID,0,VALID,89.2132,VALID,0,VALID,22.5501,VALID,48,VALID,0.655859,
2009-08-15, 01:41:04,VALID,1000.36,VALID,0,VALID,89.732,VALID,0,VALID,22.5501,VALID,48,VALID,0.960938,
2009-08-15, 01:42:04,VALID,1000.37,VALID,0,VALID,89.3276,VALID,0,VALID,22.5892,VALID,43,VALID,1.06914,
2009-08-15, 01:43:04,VALID,1000.39,VALID,0,VALID,89.2284,VALID,0,VALID,22.5306,VALID,54,VALID,1.08125,
2009-08-15, 01:44:04,VALID,1000.34,VALID,0,VALID,89.5641,VALID,0,VALID,22.4916,VALID,57,VALID,1.03086,
2009-08-15, 01:45:04,VALID,1000.36,VALID,0,VALID,89.1674,VALID,0,VALID,22.4526,VALID,61,VALID,0.655469,
2009-08-15, 01:46:04,VALID,1000.29,VALID,0,VALID,89.3352,VALID,0,VALID,22.3746,VALID,69,VALID,0.700781,
2009-08-15, 01:47:04,VALID,1000.26,VALID,0,VALID,89.5183,VALID,0,VALID,22.3356,VALID,69,VALID,0.282031,
2009-08-15, 01:48:04,VALID,1000.24,VALID,0,VALID,89.5946,VALID,0.112286,VALID,22.3161,VALID,69,VALID,0.119141,
2009-08-15, 01:49:04,VALID,1000.3,VALID,0,VALID,89.7854,VALID,0,VALID,22.2966,VALID,69,VALID,0.101172,
2009-08-15, 01:50:04,VALID,1000.26,VALID,0,VALID,90.0219,VALID,0,VALID,22.2771,VALID,69,VALID,0.0949219,
2009-08-15, 01:51:04,VALID,1000.28,VALID,0,VALID,90.0524,VALID,0,VALID,22.2771,VALID,69,VALID,0.212891,
2009-08-15, 01:52:04,VALID,1000.28,VALID,0,VALID,90.1821,VALID,0,VALID,22.2771,VALID,34,VALID,0.561719,
2009-08-15, 01:53:04,VALID,1000.28,VALID,0,VALID,90.5178,VALID,0,VALID,22.2576,VALID,31,VALID,0.744922,
2009-08-15, 01:54:04,VALID,1000.32,VALID,0,VALID,90.7543,VALID,0.112286,VALID,22.2966,VALID,32,VALID,0.662109,
2009-08-15, 01:55:04,VALID,1000.31,VALID,0,VALID,90.5331,VALID,0,VALID,22.2771,VALID,32,VALID,0.811328,
2009-08-15, 01:56:04,VALID,1000.31,VALID,0,VALID,90.8611,VALID,0,VALID,22.2576,VALID,43,VALID,0.795313,
2009-08-15, 01:57:04,VALID,1000.26,VALID,0,VALID,90.3576,VALID,0,VALID,22.2381,VALID,52,VALID,0.916016,
2009-08-15, 01:58:04,VALID,1000.24,VALID,0,VALID,90.4644,VALID,0,VALID,22.2186,VALID,54,VALID,0.716406,
2009-08-15, 01:59:04,VALID,1000.22,VALID,0,VALID,90.5178,VALID,0,VALID,22.199,VALID,54,VALID,0.444531,
2009-08-15, 02:00:04,VALID,1000.15,VALID,0,VALID,90.4339,VALID,0,VALID,22.2007,VALID,54,VALID,0.516016,
2009-08-15, 02:01:04,VALID,1000.14,VALID,0,VALID,90.4568,VALID,0,VALID,22.1405,VALID,41,VALID,0.585156,
2009-08-15, 02:02:04,VALID,1000.11,VALID,0,VALID,90.6857,VALID,0,VALID,22.1405,VALID,41,VALID,0.501953,
2009-08-15, 02:03:04,VALID,1000.09,VALID,0,VALID,90.7238,VALID,0,VALID,22.1405,VALID,41,VALID,0.39375,
2009-08-15, 02:04:04,VALID,1000.09,VALID,0,VALID,90.5865,VALID,0,VALID,22.1422,VALID,41,VALID,0.116406,
2009-08-15, 02:05:04,VALID,1000.1,VALID,0,VALID,90.6475,VALID,0,VALID,22.082,VALID,41,VALID,0.470703,
2009-08-15, 02:06:04,VALID,1000.11,VALID,0,VALID,90.9374,VALID,0,VALID,22.1227,VALID,41,VALID,0.164453,
2009-08-15, 02:07:04,VALID,1000.1,VALID,0,VALID,91.0824,VALID,0,VALID,22.1015,VALID,41,VALID,0.255859,
2009-08-15, 02:08:04,VALID,1000.08,VALID,0,VALID,91.1434,VALID,0,VALID,22.16,VALID,41,VALID,0.216016,
2009-08-15, 02:09:04,VALID,1000.06,VALID,0,VALID,91.0137,VALID,0,VALID,22.16,VALID,41,VALID,0.125781,
2009-08-15, 02:10:04,VALID,1000.03,VALID,0,VALID,90.9069,VALID,0,VALID,22.16,VALID,41,VALID,0.375781,
2009-08-15, 02:11:04,VALID,999.999,VALID,0,VALID,90.884,VALID,0,VALID,22.16,VALID,45,VALID,0.483594,
2009-08-15, 02:12:04,VALID,999.986,VALID,0,VALID,90.9222,VALID,0,VALID,22.1812,VALID,73,VALID,0.431641,
2009-08-15, 02:13:04,VALID,999.989,VALID,0,VALID,91.1511,VALID,0,VALID,22.1795,VALID,73,VALID,0.546875,
2009-08-15, 02:14:04,VALID,999.995,VALID,0,VALID,91.1206,VALID,0,VALID,22.2186,VALID,73,VALID,0.404297,
2009-08-15, 02:15:04,VALID,1000,VALID,0,VALID,90.7085,VALID,0,VALID,22.2186,VALID,86,VALID,0.775391,
2009-08-15, 02:16:04,VALID,1000.02,VALID,0,VALID,91.0137,VALID,0,VALID,22.2381,VALID,93,VALID,1.37656,
2009-08-15, 02:17:04,VALID,1000.02,VALID,0,VALID,90.8306,VALID,0,VALID,22.2381,VALID,97,VALID,1.2043,
2009-08-15, 02:18:04,VALID,1000.04,VALID,0,VALID,90.7162,VALID,0.112286,VALID,22.2576,VALID,103,VALID,1.24219,
2009-08-15, 02:19:04,VALID,1000.01,VALID,0,VALID,90.7238,VALID,0,VALID,22.2576,VALID,102,VALID,1.12773,
2009-08-15, 02:20:04,VALID,1000.03,VALID,0,VALID,90.6628,VALID,0,VALID,22.2381,VALID,102,VALID,0.733984,
2009-08-15, 02:21:04,VALID,1000.01,VALID,0,VALID,90.7238,VALID,0,VALID,22.2186,VALID,101,VALID,0.630469,
2009-08-15, 02:22:04,VALID,1000.03,VALID,0,VALID,90.9451,VALID,0,VALID,22.2186,VALID,91,VALID,0.742578,
2009-08-15, 02:23:04,VALID,1000.05,VALID,0,VALID,91.2045,VALID,0,VALID,22.2186,VALID,64,VALID,0.866797,
2009-08-15, 02:24:04,VALID,1000.05,VALID,0,VALID,90.8688,VALID,0,VALID,22.2186,VALID,48,VALID,0.805859,
2009-08-15, 02:25:04,VALID,1000.02,VALID,0,VALID,90.5865,VALID,0,VALID,22.1795,VALID,45,VALID,0.746484,
2009-08-15, 02:26:04,VALID,1000.05,VALID,0,VALID,90.3576,VALID,0,VALID,22.1015,VALID,45,VALID,0.812109,
2009-08-15, 02:27:04,VALID,1000.04,VALID,0,VALID,90.5865,VALID,0,VALID,22.0235,VALID,48,VALID,1.07344,
2009-08-15, 02:28:04,VALID,1000.05,VALID,0,VALID,91.0366,VALID,0.112286,VALID,22.004,VALID,47,VALID,1.11055,
2009-08-15, 02:29:04,VALID,1000.05,VALID,0,VALID,90.9909,VALID,0,VALID,22.0235,VALID,47,VALID,0.902344,
2009-08-15, 02:30:04,VALID,1000.06,VALID,0,VALID,90.6246,VALID,0,VALID,22.043,VALID,48,VALID,0.923047,
2009-08-15, 02:31:04,VALID,1000.06,VALID,0,VALID,90.9832,VALID,0,VALID,22.004,VALID,47,VALID,0.844141,
2009-08-15, 02:32:04,VALID,1000.05,VALID,0,VALID,91.1053,VALID,0,VALID,22.0235,VALID,48,VALID,0.947656,
2009-08-15, 02:33:04,VALID,1000.04,VALID,0,VALID,91.0443,VALID,0,VALID,22.043,VALID,47,VALID,0.875,
2009-08-15, 02:34:04,VALID,1000.03,VALID,0,VALID,90.9985,VALID,0,VALID,22.0235,VALID,47,VALID,0.616016,
2009-08-15, 02:35:04,VALID,1000.06,VALID,0,VALID,90.8154,VALID,0,VALID,21.9845,VALID,47,VALID,0.392188,
2009-08-15, 02:36:04,VALID,1000.05,VALID,0,VALID,90.968,VALID,0,VALID,21.965,VALID,48,VALID,0.336328,
2009-08-15, 02:37:04,VALID,1000.09,VALID,0,VALID,90.9909,VALID,0,VALID,21.926,VALID,49,VALID,0.373828,
2009-08-15, 02:38:04,VALID,1000.07,VALID,0,VALID,91.2731,VALID,0.112286,VALID,21.9065,VALID,55,VALID,0.882031,
2009-08-15, 02:39:04,VALID,1000.04,VALID,0,VALID,91.7157,VALID,0,VALID,21.9277,VALID,57,VALID,1.05664,
2009-08-15, 02:40:04,VALID,1000.05,VALID,0,VALID,91.5554,VALID,0,VALID,21.9455,VALID,56,VALID,0.907031,
2009-08-15, 02:41:04,VALID,1000.05,VALID,0,VALID,91.5173,VALID,0,VALID,21.9455,VALID,58,VALID,0.553125,
2009-08-15, 02:42:04,VALID,1000,VALID,0,VALID,91.4028,VALID,0,VALID,21.926,VALID,52,VALID,0.908203,
2009-08-15, 02:43:04,VALID,999.983,VALID,0,VALID,91.6623,VALID,0,VALID,21.9455,VALID,34,VALID,1.40781,
2009-08-15, 02:44:04,VALID,1000,VALID,0,VALID,91.6546,VALID,0,VALID,21.9455,VALID,53,VALID,1.28125,
2009-08-15, 02:45:04,VALID,999.98,VALID,0,VALID,91.5554,VALID,0,VALID,21.926,VALID,54,VALID,1.34687,
2009-08-15, 02:46:04,VALID,999.947,VALID,0,VALID,91.7462,VALID,0,VALID,21.926,VALID,69,VALID,1.08477,
2009-08-15, 02:47:04,VALID,999.967,VALID,0,VALID,92.1811,VALID,0,VALID,21.9048,VALID,96,VALID,1.45313,
2009-08-15, 02:48:04,VALID,999.948,VALID,0,VALID,92.6846,VALID,0,VALID,22.0235,VALID,84,VALID,1.44453,
2009-08-15, 02:49:04,VALID,999.948,VALID,0,VALID,92.5778,VALID,0,VALID,22.1015,VALID,88,VALID,1.41484,
2009-08-15, 02:50:04,VALID,999.958,VALID,0,VALID,92.3718,VALID,0,VALID,22.1405,VALID,81,VALID,1.26914,
2009-08-15, 02:51:04,VALID,999.946,VALID,0,VALID,92.2726,VALID,0.112286,VALID,22.16,VALID,99,VALID,1.21641,
2009-08-15, 02:52:04,VALID,999.969,VALID,0,VALID,92.3337,VALID,0,VALID,22.199,VALID,104,VALID,1.30469,
2009-08-15, 02:53:04,VALID,999.942,VALID,0,VALID,92.3184,VALID,0.112286,VALID,22.2186,VALID,89,VALID,1.37227,
2009-08-15, 02:54:04,VALID,999.926,VALID,0,VALID,91.792,VALID,0,VALID,22.2186,VALID,71,VALID,1.22578,
2009-08-15, 02:55:04,VALID,999.947,VALID,0,VALID,91.708,VALID,0,VALID,22.199,VALID,79,VALID,0.896875,
2009-08-15, 02:56:04,VALID,999.916,VALID,0,VALID,91.9598,VALID,0,VALID,22.1795,VALID,99,VALID,0.982813,
2009-08-15, 02:57:04,VALID,999.901,VALID,0,VALID,92.0971,VALID,0,VALID,22.2186,VALID,113,VALID,1.11172,
2009-08-15, 02:58:04,VALID,999.924,VALID,0,VALID,92.2421,VALID,0,VALID,22.2966,VALID,126,VALID,1.38398,
2009-08-15, 02:59:04,VALID,999.929,VALID,0,VALID,92.0514,VALID,0,VALID,22.3551,VALID,126,VALID,1.43086,
2009-08-15, 03:00:04,VALID,999.921,VALID,0,VALID,91.8454,VALID,0,VALID,22.4136,VALID,123,VALID,1.17539,
2009-08-15, 03:01:04,VALID,999.904,VALID,0,VALID,91.5554,VALID,0,VALID,22.4526,VALID,139,VALID,1.25625,
2009-08-15, 03:02:04,VALID,999.889,VALID,0,VALID,91.1282,VALID,0,VALID,22.5128,VALID,141,VALID,1.46094,
2009-08-15, 03:03:04,VALID,999.906,VALID,0,VALID,90.5941,VALID,0,VALID,22.5306,VALID,134,VALID,1.12617,
2009-08-15, 03:04:04,VALID,999.877,VALID,0,VALID,90.1363,VALID,0,VALID,22.6087,VALID,142,VALID,0.791406,
2009-08-15, 03:05:04,VALID,999.91,VALID,0,VALID,89.7396,VALID,0,VALID,22.6672,VALID,158,VALID,0.929688,
2009-08-15, 03:06:04,VALID,999.918,VALID,0,VALID,89.3657,VALID,0,VALID,22.7257,VALID,170,VALID,0.984375,
2009-08-15, 03:07:04,VALID,999.903,VALID,0,VALID,88.8851,VALID,0,VALID,22.7842,VALID,171,VALID,0.989453,
2009-08-15, 03:08:04,VALID,999.906,VALID,0,VALID,88.2289,VALID,0,VALID,22.8835,VALID,155,VALID,0.715625,
2009-08-15, 03:09:04,VALID,999.904,VALID,0,VALID,87.527,VALID,0,VALID,22.9811,VALID,155,VALID,0.685156,
2009-08-15, 03:10:04,VALID,999.914,VALID,0,VALID,87.0692,VALID,0,VALID,22.9988,VALID,155,VALID,0.708594,
2009-08-15, 03:11:04,VALID,999.931,VALID,0,VALID,86.8327,VALID,0,VALID,23.0786,VALID,148,VALID,0.773828,
2009-08-15, 03:12:04,VALID,999.924,VALID,0,VALID,86.6115,VALID,0,VALID,23.0981,VALID,148,VALID,0.697266,
2009-08-15, 03:13:04,VALID,999.874,VALID,0,VALID,86.5657,VALID,0,VALID,23.1194,VALID,140,VALID,0.753125,
2009-08-15, 03:14:04,VALID,999.837,VALID,0,VALID,86.4436,VALID,0,VALID,23.0786,VALID,113,VALID,1.48906,
2009-08-15, 03:15:04,VALID,999.818,VALID,0,VALID,85.9782,VALID,0,VALID,23.0769,VALID,106,VALID,1.01367,
2009-08-15, 03:16:04,VALID,999.8,VALID,0,VALID,85.8866,VALID,0,VALID,23.0981,VALID,115,VALID,0.512891,
2009-08-15, 03:17:04,VALID,999.812,VALID,0,VALID,86.024,VALID,0,VALID,23.0786,VALID,117,VALID,0.178125,
2009-08-15, 03:18:04,VALID,999.783,VALID,0,VALID,86.0774,VALID,0,VALID,23.0396,VALID,117,VALID,0.446094,
2009-08-15, 03:19:04,VALID,999.798,VALID,0,VALID,86.1308,VALID,0,VALID,23.0006,VALID,117,VALID,0.121094,
2009-08-15, 03:20:04,VALID,999.816,VALID,0,VALID,86.1537,VALID,0,VALID,22.9403,VALID,115,VALID,0.427734,
2009-08-15, 03:21:04,VALID,999.831,VALID,0,VALID,86.146,VALID,0,VALID,22.9225,VALID,115,VALID,0.195703,
2009-08-15, 03:22:04,VALID,999.806,VALID,0,VALID,86.1308,VALID,0,VALID,22.864,VALID,115,VALID,0.0140625,
2009-08-15, 03:23:04,VALID,999.785,VALID,0,VALID,86.3368,VALID,0,VALID,22.7842,VALID,115,VALID,0.00429688,
2009-08-15, 03:24:04,VALID,999.751,VALID,0,VALID,86.8022,VALID,0,VALID,22.7274,VALID,115,VALID,0.0261719,
2009-08-15, 03:25:04,VALID,999.734,VALID,0,VALID,87.1684,VALID,0,VALID,22.6884,VALID,115,VALID,0.249219,
2009-08-15, 03:26:04,VALID,999.697,VALID,0,VALID,87.1913,VALID,0,VALID,22.6494,VALID,17,VALID,0.670703,
2009-08-15, 03:27:04,VALID,999.679,VALID,0,VALID,87.4965,VALID,0,VALID,22.5909,VALID,19,VALID,1.12617,
2009-08-15, 03:28:04,VALID,999.679,VALID,0,VALID,87.7177,VALID,0,VALID,22.5323,VALID,18,VALID,0.883594,
2009-08-15, 03:29:04,VALID,999.676,VALID,0,VALID,87.7711,VALID,0,VALID,22.4526,VALID,18,VALID,0.716797,
2009-08-15, 03:30:04,VALID,999.66,VALID,0,VALID,88.1679,VALID,0,VALID,22.4136,VALID,19,VALID,0.653516,
2009-08-15, 03:31:04,VALID,999.678,VALID,0,VALID,88.3434,VALID,0,VALID,22.3958,VALID,29,VALID,0.7125,
2009-08-15, 03:32:04,VALID,999.676,VALID,0,VALID,88.29,VALID,0,VALID,22.3568,VALID,29,VALID,0.469141,
2009-08-15, 03:33:04,VALID,999.696,VALID,0,VALID,88.2518,VALID,0,VALID,22.3161,VALID,29,VALID,0.541797,
2009-08-15, 03:34:04,VALID,999.691,VALID,0,VALID,88.5875,VALID,0,VALID,22.2966,VALID,78,VALID,0.452344,
2009-08-15, 03:35:04,VALID,999.715,VALID,0,VALID,88.4578,VALID,0,VALID,22.3178,VALID,78,VALID,0.124609,
2009-08-15, 03:36:04,VALID,999.739,VALID,0,VALID,88.4883,VALID,0,VALID,22.2381,VALID,78,VALID,0,
2009-08-15, 03:37:04,VALID,999.751,VALID,0,VALID,88.8011,VALID,0,VALID,22.2186,VALID,78,VALID,0,
2009-08-15, 03:38:04,VALID,999.732,VALID,0,VALID,89.0377,VALID,0,VALID,22.2397,VALID,78,VALID,0.0960938,
2009-08-15, 03:39:04,VALID,999.719,VALID,0,VALID,89.381,VALID,0,VALID,22.2576,VALID,78,VALID,0.183203,
2009-08-15, 03:40:04,VALID,999.763,VALID,0,VALID,89.381,VALID,0,VALID,22.2983,VALID,339,VALID,0.415234,
2009-08-15, 03:41:04,VALID,999.735,VALID,0,VALID,89.3734,VALID,0,VALID,22.3178,VALID,339,VALID,0.101563,
2009-08-15, 03:42:04,VALID,999.75,VALID,0,VALID,89.4649,VALID,0,VALID,22.2771,VALID,339,VALID,0.434766,
2009-08-15, 03:43:04,VALID,999.769,VALID,0,VALID,89.1521,VALID,0,VALID,22.2788,VALID,339,VALID,0.40625,
2009-08-15, 03:44:04,VALID,999.728,VALID,0,VALID,89.236,VALID,0,VALID,22.199,VALID,339,VALID,0.701953,
2009-08-15, 03:45:04,VALID,999.71,VALID,0,VALID,89.3505,VALID,0,VALID,22.1617,VALID,344,VALID,0.685547,